www.pogodaiklimat.ru

Погода и климат >> Архив погоды >> Россия >> Ненецкий АО >> Индига


АРХИВ ПОГОДЫ в Индиге

Время (UTC), дата Ветер
(напр.,м/с)
 
Видим.   Явления Облачность Т
(С)
Тd
(С)
f
(%)
Тe
(С)
Тes
(С)
Комфортность P
(гПа)
Po
(гПа)
Тmin
(С)
Tmax
(С)
R
(мм)
R24
(мм)
S
(см)
03 14.09 ЮВ 3 20 км в посл. час ливневой дождь 6/3 300 м
[Cb cap Ac trans Ci sp]
+8.7 +8.2 97 +6 +6 1001.8 1001.3 +8.2 0.0
06 14.09 ЮВ 3 20 км {ливн. осадки} 6/3 300 м
[Cb cap Ac trans Ci sp]
+12.5 +11.2 92 +11 +12 1001.5 1001.0
09 14.09 ЮВ 4 20 км 8/6 300 м
[Cb cap Ac trans]
+14.1 +11.4 84 +13 +13 1001.3 1000.8
12 14.09 В 4 20 км 8/8 300 м
[Cb cap]
+14.1 +10.5 79 +13 +13 1000.5 1000.0
15 14.09 В 4 20 км 9/5 300 м
[Cb cap Ac As]
+12.8 +10.7 87 +11 +11 999.8 999.3 +15.6
18 14.09 В 6 20 км 8/6 300 м
[Cb cap Ac trans]
+11.3 +10.3 94 +8 +8 998.0 997.5
21 14.09 В 7 20 км 9/9 300 м
[Cb cap]
+10.8 +10.0 95 +7 +7 995.2 994.7
00 15.09 В 8-10
{10}
10 км слаб. ливневой дождь 10/10 300 м
[Cb cap]
+11.0 +10.0 94 +7 +7 992.3 991.8
03 15.09 В 8-11
{11}
4000 м ливневой дождь 10/10 300 м
[Cb cap]
+10.8 +10.3 97 +7 +7 989.7 989.2 +10.3 4
06 15.09 В 8-10
{14}
10 км {ливн. осадки} 10/10 300 м
[Cb cap]
+10.9 +10.5 97 +7 +7 987.4 986.9
09 15.09 В 6
{11}
10 км слаб. ливневой дождь 10/10 300 м
[Cb cap]
+11.5 +11.0 97 +8 +8 985.9 985.4
12 15.09 ЮВ 7
{10}
20 км {ливн. осадки} 8/8 300 м
[Cb cap Ac trans]
+12.0 +9.4 84 +9 +9 985.5 985.0
15 15.09 ЮВ 6
{10}
10 км 9/9 300 м
[Cb cap]
+9.7 +8.6 93 +6 +6 985.0 984.5 +13.0 2
18 15.09 В 8 10 км 10/10 300 м
[St]
+8.9 +8.6 98 +4 +4 984.0 983.5
21 15.09 В 7
{10}
10 км 9/9 300 м
[St]
+8.2 +7.7 97 +4 +4 983.5 983.0
00 16.09 В 7
{10}
10 км 9/8 600 м
[Sc Ac trans]
+7.7 +7.0 95 +3 +3 983.4 982.9
03 16.09 В 7
{10}
10 км в посл. час ливневой дождь 9/9 300 м
[Cb cap]
+7.1 +6.7 97 +2 +2 983.3 982.8 +7.1 0.0
06 16.09 В 8
{11}
10 км в посл. час ливневой дождь 9/9 300 м
[Cb cap]
+7.5 +5.3 86 +3 +3 983.1 982.6 +6.7
09 16.09 В 8-11
{11}
10 км слаб. ливневой дождь 9/9 300 м
[Cb cap]
+7.8 +6.7 93 +3 +3 983.8 983.3
12 16.09 В 8-10
{11}
10 км {ливн. осадки} 9/9 300 м
[Cb cap]
+8.7 +6.1 84 +4 +4 985.2 984.7
15 16.09 В 5
{11}
10 км в посл. час ливневой дождь 9/9 300 м
[Cb cap]
+8.2 +7.4 95 +4 +4 986.2 985.7 +8.8 0.5
18 16.09 В 7
{10}
10 км {ливн. осадки} 9/9 300 м
[Cb cap]
+7.2 +6.5 95 +2 +2 986.8 986.3
21 16.09 СВ 7
{11}
10 км 10/10 300 м
[Cb cap]
+7.1 +6.7 97 +2 +2 987.0 986.5
00 17.09 В 8-10
{11}
10 км слаб. ливневой дождь 10/10 300 м
[Cb cap]
+6.9 +6.6 98 +2 +2 987.9 987.4
03 17.09 В 7
{11}
10 км в посл. час ливневой дождь 10/10 300 м
[Cb cap]
+6.6 +5.9 95 +1 +1 988.7 988.2 +6.4 0.4
06 17.09 СВ 9-12
{12}
10 км слаб. ливневой дождь 10/10 300 м
[Cb cap]
+6.6 +5.9 95 +1 +1 989.7 989.2 +6.3
09 17.09 СВ 7
{12}
4000 м слаб. морось 10/10 300 м
[St]
+6.8 +5.9 94 +2 +2 990.8 990.3
12 17.09 СВ 10-12
{13}
10 км {ливн. осадки, морось} 10/10 600 м
[Sc]
+6.7 +3.9 82 +1 +1 992.2 991.7
15 17.09 С 9-12
{12}
10 км 9/9 600 м
[Sc]
+6.4 +3.3 81 +1 +1 993.1 992.6 +6.8 0.4
18 17.09 С 6
{13}
10 км слаб. ливневой дождь 8/8 300 м
[Cb cap]
+5.4 +2.5 82 0 0 993.8 993.3
21 17.09 С 7
{10}
10 км в посл. час ливневой дождь 9/9 300 м
[Cb cap]
+5.6 +1.3 74 +1 +1 993.7 993.2
00 18.09 С 8
{11}
20 км {ливн. осадки} 6/6 300 м
[Cb cap]
+5.6 +1.6 75 0 0 993.8 993.3
03 18.09 СЗ 6
{11}
20 км {ливн. осадки} 6/6 300 м
[Cb cap]
+5.5 +1.2 74 +1 +1 993.9 993.4 +4.6 0.3
06 18.09 СЗ 7-10
{12}
20 км {ливн. осадки} 8/8 300 м
[Cb cap]
+6.1 +1.6 73 +1 +1 994.0 993.5
09 18.09 З 7-10
{10}
20 км 9/9 300 м
[Cb cap]
+6.6 +3.0 78 +2 +2 994.7 994.2
12 18.09 СЗ 8-11
{13}
20 км {ливн. осадки} 8/8 300 м
[Cb cap]
+6.8 +3.0 77 +2 +2 995.9 995.4
15 18.09 СЗ 8-10
{13}
20 км 8/8 300 м
[Cb cap]
+6.7 +2.9 77 +2 +2 996.7 996.2 +7.2 0.0
18 18.09 СЗ 7-11
{12}
10 км слаб. ливневой дождь 8/8 300 м
[Cb cap]
+6.2 +3.2 81 +1 +1 997.2 996.7
21 18.09 СЗ 6
{11}
10 км {ливн. осадки} 4/4 300 м
[Cb cap]
+5.8 +2.6 80 +1 +1 997.6 997.1
00 19.09 СЗ 6
{11}
10 км в посл. час ливневой дождь 4/4 300 м
[Cb cap]
+5.4 +2.2 80 +1 +1 998.1 997.6
03 19.09 СЗ 6
{10}
10 км {ливн. осадки} 8/8 300 м
[Cb cap]
+5.3 +1.5 76 0 0 998.2 997.7 +5.0 0.4
06 19.09 СЗ 6
{12}
20 км {ливн. осадки} 8/8 300 м
[Cb cap]
+5.7 +1.7 75 +1 +1 998.5 998.0 +4.3
09 19.09 З 6 20 км 6/6 300 м
[Cb cap]
+6.8 +2.2 72 +2 +3 999.1 998.6
12 19.09 З 5 20 км 5/5 300 м
[Cb cap]
+6.6 +1.9 72 +3 +3 999.8 999.3
15 19.09 СЗ 6 20 км 8/8 300 м
[Cb cap]
+5.7 +1.4 74 +1 +1 1000.2 999.7 +6.9 0.0
18 19.09 СЗ 7
{10}
20 км 8/8 300 м
[Cb cap]
+5.0 +2.1 81 -0 -0 1000.2 999.7
21 19.09 СЗ 6
{11}
20 км 8/8 300 м
[Cb cap]
+5.1 +1.9 80 0 0 1000.0 999.5
00 20.09 З 6 20 км 6/6 300 м
[Cb cap]
+4.9 +1.1 76 -0 -0 1000.2 999.7
03 20.09 З 5 20 км 8/8 300 м
[Cb cap]
+4.9 +1.1 76 0 0 1000.0 999.5 +4.8
06 20.09 ЮЗ 7
{11}
20 км {ливн. осадки} 8/8 300 м
[Cb cap]
+3.2 +1.9 91 -3 -3 1000.1 999.6 +2.0
09 20.09 ЮЗ 6
{10}
20 км 8/8 300 м
[Cb cap]
+5.7 +1.7 75 +1 +1 1000.3 999.8
12 20.09 З 5
{11}
10 км в посл. час ливневой дождь 9/8 300 м
[Cb cap Ci ing]
+4.4 +1.9 84 -0 -0 1001.0 1000.5
15 20.09 Ю 6-10
{10}
10 км в посл. час ливневой дождь 8/5 300 м
[Cb cap Ci sp]
+2.5 +1.2 91 -4 -4 1000.3 999.8 +5.7 0.5
18 20.09 ЮЗ 3
{10}
20 км {ливн. осадки} 4/4 300 м
[Cb cap]
+2.4 +0.5 87 -2 -2 1000.1 999.6
21 20.09 Ю 6 20 км 1/1 300 м
[Cb cap]
+0.6 -0.3 94 -6 -6 999.5 999.0
00 21.09 Ю 4 20 км ясно -0.9 -1.4 96 -7 -7 999.0 998.5

 

Местоположение метеостанции Индига (Ненецкий АО, Россия): широта 67.68 долгота 48.68 высота над уровнем моря 4 м.

В архиве по умолчанию представлена погода в Индиге за последнюю неделю. Архивные данные за месяц целиком и за предыдущие месяцы, начиная с января 2011 года, Вы можете получить, выбрав интересующий диапазон дат из раскрывающегося списка и нажав кнопку "Ввод!".


*Определитесь, кто Вы:
робот инопланетянин человек

Внимание! Время в таблицах - всемирное. Для получения местного времени необходимо прибавить поправку, которая равна 3 ч.

Смотрите также архив погоды в соседних городах и на ближайших метеорологических станциях:

Погода на Мысе Микулкин (Ненецкий АО, Россия) (86 км)
Погода в Нижней Пеше (Ненецкий АО, Россия) (111 км)
Погода в Коткино (Ненецкий АО, Россия) (127 км)
Погода в Бугрино (Ненецкий АО, Россия) (127 км)
Погода в Сенгейском Шаре (Ненецкий АО, Россия) (139 км)
Погода в Нарьян-Маре (Ненецкий АО, Россия) (184 км)
Погода в Шойне (Ненецкий АО, Россия) (191 км)
Погода на Колгуевом Острове (Ненецкий АО, Россия) (206 км)
Погода в Неси (Ненецкий АО, Россия) (210 км)
Погода в Окуневом Носу (Коми, Россия) (233 км)

Пояснения к столбцам:

Ветер - указаны скорость ветра в м/с - средняя за 10 мин, порывы в срок и между сроками (в фигурных скобках) и направление, откуда дует ветер: С - северный, СВ - северо-восточный, В - восточный, ЮВ - юго-восточный, Ю - южный, ЮЗ - юго-западный, З - западный, СЗ - северо-западный.
Видимость - горизонтальная дальность видимости в метрах или километрах. При видимости от 1 до 10 км при отсутствии осадков обычно наблюдается дымка, при ухудшении видимости до 1 км и менее - туман. В сухую погоду видимость может ухудшаться дымом, пылью или мглою.
Явления - указаны атмосферные явления, наблюдавшиеся в срок или в последний час перед сроком; фигурными скобками обозначены явления, наблюдавшиеся между сроками (за 1-3 часа до срока); квадратными скобками обозначены град или гололедные отложения с указанием их диаметра в мм.
Облачность - указаны через наклонную черту общая и нижняя облачность в баллах и высота нижней границы облаков в метрах; квадратными скобками обозначены формы облаков: Ci - перистые, Cs - перисто-слоистые, Cc - перисто-кучевые, Ac - высококучевые, As - высокослоистые, Sc - слоисто-кучевые, Ns - слоисто-дождевые, Cu - кучевые, Cb - кучево-дождевые. Подробнее классификацию облаков см. в Атласе облаков (PDF).
T - Температура воздуха - температура, измеренная на высоте 2 м над землей.
Td - Температура точки росы - температура, при понижении до которой содержащийся в воздухе водяной пар достигнет насыщения.
f - Относительная влажность воздуха - влажноcть воздуха, измеренная на высоте 2 м над землей.
Te - Эффективная температура - температура, которую ощущает одетый по сезону человек в тени. Характеристика душности погоды. При расчете учитывается влияние влажности воздуха и скорости ветра на теплоощущения человека.
Tes - Эффективная температура на солнце - температура, которую ощущает человек, с поправкой на солнечный нагрев. Характеристика знойности погоды. Зависит от высоты солнца над горизонтом, облачности и скорости ветра. Ночью, в пасмурную погоду, а также при ветре 12 м/с и более поправка равна нулю.
P - Атмосферное давление - приведенное к уровню моря атмосферное давление.
Po - Атмосферное давление - измеренное на уровне метеостанции атмосферное давление.
Tmin - Минимальная температура - минимум температуры воздуха на высоте 2 м над землей.
Tmax - Максимальная температура - максимум температуры воздуха на высоте 2 м над землей.
R - Количество осадков - Количество выпавших осадков за период времени, мм. При наведении курсора мыши на число - период времени, за который выпало указанное количество осадков.
R24 - Количество осадков - Количество выпавших осадков за 24 часа, мм.
S - Снежный покров - Высота снежного покрова, см. При наведении курсора мыши на число - состояние снежного покрова и степень покрытия местности в баллах.